Powrót do katalogu

STARLINK-34661

AktywnyŁącznośćVLEO
NORAD 64927·PAYLOAD·🇺🇸 United States

Wystrzelony Jul 26, 2025 z Cape Canaveral Space Force Station

Loading…

Następne Przeloty (najbliższe 24 godziny)

TLE

ŚwieżeSource: CelesTrak SupGP

Epoka: Sep 15, 2026, 02:43 UTC

1 64927C 25157Z   26258.11368056 -.00062534  00000+0 -18476-2 0  2588
2 64927  53.1570 182.7446 0001246  80.6260  96.9627 15.34421134    16

Śledź STARLINK-34661 w czasie rzeczywistym z AllMySat

Download on the App Store